Find Hermes

NORAD ID: 8585 Int'l Des: 1976-004 Owner: CRC Country: CA operational
HEOCIRCULAR

Live-Position

3D-Globus wird geladen...

Über Hermes

Beschreibung wird geladen...

Nächste Überflüge

Passes for default location (London). Set your location on the main map for personalized predictions.

Höhenverlauf

Loading altitude history...

Zweizeiliger Elementsatz

1 08585U 76004A 26107.13214567 -.00000059 00000-0 00000-0 0 9993
2 08585 4.0866 272.9145 0010871 280.7895 311.3402 1.00200632121684
Epoch: 17. Apr. 2026 • Age: 14 hours

Aktueller Status

Höhe 35850.9 km
Geschwindigkeit 3.07 km/s
Subsatellitenpunkt 4.11°N, 107.94°W
Typ other

Most Searched